﻿_id,日時,平均風速(m/s),平均風向,最大瞬間風速(m/s),最大風速時風向,気温(℃),湿度(%),10分間移動積算雨量(mm),1時間移動積算雨量(mm),日雨量(mm),累計雨量(mm),日射(日積算)(MJ/m2),日照(日積算)(min),現地気圧(hPa),海面気圧(hPa)
1,2021-07-19T00:00:00,0.5,西,1.1,西南西,24.2,96.5,0,0,1.5,1.5,18.18,428,1002.8,1016.2
2,2021-07-19T00:01:00,0.5,西,1.2,西,24.2,96.5,0,0,0,1.5,0,0,1002.8,1016.2
3,2021-07-19T00:02:00,0.5,西,1.2,西,24.3,96.7,0,0,0,1.5,0,0,1002.8,1016.2
4,2021-07-19T00:03:00,0.5,西,1.2,西,24.2,96.6,0,0,0,1.5,0,0,1002.8,1016.2
5,2021-07-19T00:04:00,0.5,西,1.2,西,24.3,96.8,0,0,0,1.5,0,0,1002.8,1016.2
6,2021-07-19T00:05:00,0.4,西南西,1.2,西,24.3,96.9,0,0,0,1.5,0,0,1002.8,1016.2
7,2021-07-19T00:06:00,0.4,西南西,1.2,西,24.3,97,0,0,0,1.5,0,0,1002.8,1016.2
8,2021-07-19T00:07:00,0.4,南西,1.2,西,24.4,97,0,0,0,1.5,0,0,1002.8,1016.2
9,2021-07-19T00:08:00,0.5,南西,1.2,西,24.4,97,0,0,0,1.5,0,0,1002.8,1016.2
10,2021-07-19T00:09:00,0.5,南西,1.2,西,24.5,97,0,0,0,1.5,0,0,1002.8,1016.2
11,2021-07-19T00:10:00,0.5,南西,1.2,西,24.5,97.1,0,0,0,1.5,0,0,1002.8,1016.2
12,2021-07-19T00:11:00,0.4,南西,1,南西,24.3,96.7,0,0,0,1.5,0,0,1002.8,1016.2
13,2021-07-19T00:12:00,0.4,南西,1,南西,24.3,96.7,0,0,0,1.5,0,0,1002.8,1016.2
14,2021-07-19T00:13:00,0.4,南西,1,南西,24.3,96.8,0,0,0,1.5,0,0,1002.8,1016.2
15,2021-07-19T00:14:00,0.4,南西,1,南西,24.4,97,0,0,0,1.5,0,0,1002.8,1016.2
16,2021-07-19T00:15:00,0.4,南西,1,南西,24.5,97.1,0,0,0,1.5,0,0,1002.8,1016.2
17,2021-07-19T00:16:00,0.4,南西,1,南西,24.5,97.1,0,0,0,1.5,0,0,1002.8,1016.2
18,2021-07-19T00:17:00,0.5,西南西,1,南西,24.5,96.9,0,0,0,1.5,0,0,1002.8,1016.2
19,2021-07-19T00:18:00,0.5,西南西,1.1,西,24.5,96.9,0,0,0,1.5,0,0,1002.8,1016.2
20,2021-07-19T00:19:00,0.5,西南西,1.3,西南西,24.5,96.8,0,0,0,1.5,0,0,1002.8,1016.2
21,2021-07-19T00:20:00,0.6,西南西,1.5,西,24.3,96.5,0,0,0,1.5,0,0,1002.8,1016.2
22,2021-07-19T00:21:00,0.7,西,1.6,西,24.5,96.7,0,0,0,1.5,0,0,1002.8,1016.2
23,2021-07-19T00:22:00,0.8,西,1.8,西,24.4,96.7,0,0,0,1.5,0,0,1002.8,1016.2
24,2021-07-19T00:23:00,1,西,1.8,西,24.3,96.6,0,0,0,1.5,0,0,1002.8,1016.2
25,2021-07-19T00:24:00,1.1,西,1.8,西,24.2,96.5,0,0,0,1.5,0,0,1002.8,1016.2
26,2021-07-19T00:25:00,1.1,西,1.8,西,24.2,96.7,0,0,0,1.5,0,0,1002.8,1016.2
27,2021-07-19T00:26:00,1.1,西南西,1.8,西,24.1,96.7,0,0,0,1.5,0,0,1002.8,1016.2
28,2021-07-19T00:27:00,1.1,西南西,1.8,西,24.1,96.9,0,0,0,1.5,0,0,1002.7,1016.1
29,2021-07-19T00:28:00,1,西南西,1.8,西,24.1,96.9,0,0,0,1.5,0,0,1002.7,1016.1
30,2021-07-19T00:29:00,0.9,西南西,1.8,西,24.1,97.1,0,0,0,1.5,0,0,1002.7,1016.1
31,2021-07-19T00:30:00,0.8,西南西,1.8,西,24.1,97.1,0,0,0,1.5,0,0,1002.8,1016.2
32,2021-07-19T00:31:00,0.7,南西,1.8,西,24.1,97.2,0,0,0,1.5,0,0,1002.8,1016.2
33,2021-07-19T00:32:00,0.6,南西,1.8,西,24.1,97.4,0,0,0,1.5,0,0,1002.7,1016.1
34,2021-07-19T00:33:00,0.5,南西,1.6,西南西,24.2,97.4,0,0,0,1.5,0,0,1002.7,1016.1
35,2021-07-19T00:34:00,0.4,西南西,1.4,西南西,24.3,97.5,0,0,0,1.5,0,0,1002.7,1016.1
36,2021-07-19T00:35:00,0.3,西南西,0.8,西南西,24.2,97.4,0,0,0,1.5,0,0,1002.7,1016.1
37,2021-07-19T00:36:00,0.3,西南西,0.8,西南西,24.3,97.3,0,0,0,1.5,0,0,1002.7,1016.1
38,2021-07-19T00:37:00,0.3,西南西,0.8,西南西,24.4,97.4,0,0,0,1.5,0,0,1002.7,1016.1
39,2021-07-19T00:38:00,0.3,西南西,0.8,西南西,24.5,97.3,0,0,0,1.5,0,0,1002.7,1016.1
40,2021-07-19T00:39:00,0.2,静穏,0.8,西南西,24.5,97.3,0,0,0,1.5,0,0,1002.7,1016.1
41,2021-07-19T00:40:00,0.2,静穏,0.8,西南西,24.4,97.1,0,0,0,1.5,0,0,1002.7,1016.1
42,2021-07-19T00:41:00,0.2,静穏,0.8,西南西,24.4,97,0,0,0,1.5,0,0,1002.7,1016.1
43,2021-07-19T00:42:00,0.2,静穏,0.8,西南西,24.5,97,0,0,0,1.5,0,0,1002.7,1016.1
44,2021-07-19T00:43:00,0.2,静穏,0.8,西南西,24.5,97,0,0,0,1.5,0,0,1002.7,1016.1
45,2021-07-19T00:44:00,0.2,静穏,0.8,西南西,24.4,96.9,0,0,0,1.5,0,0,1002.7,1016.1
46,2021-07-19T00:45:00,0.2,静穏,0.5,西,24.5,96.8,0,0,0,1.5,0,0,1002.6,1016
47,2021-07-19T00:46:00,0.2,静穏,0.5,西,24.5,96.8,0,0,0,1.5,0,0,1002.6,1016
48,2021-07-19T00:47:00,0.2,静穏,0.5,西,24.5,96.7,0,0,0,1.5,0,0,1002.6,1016
49,2021-07-19T00:48:00,0.1,静穏,0.5,西,24.5,96.7,0,0,0,1.5,0,0,1002.6,1016
50,2021-07-19T00:49:00,0.2,静穏,0.5,西,24.3,96.7,0,0,0,1.5,0,0,1002.5,1015.9
51,2021-07-19T00:50:00,0.1,静穏,0.5,西,24.5,96.7,0,0,0,1.5,0,0,1002.5,1015.9
52,2021-07-19T00:51:00,0.1,静穏,0.5,西,24.5,96.9,0,0,0,1.5,0,0,1002.5,1015.9
53,2021-07-19T00:52:00,0.1,静穏,0.5,西,24.4,96.8,0,0,0,1.5,0,0,1002.5,1015.9
54,2021-07-19T00:53:00,0.1,静穏,0.5,西,24.4,96.7,0,0,0,1.5,0,0,1002.5,1015.9
55,2021-07-19T00:54:00,0.1,静穏,0.8,南西,24.5,96.9,0,0,0,1.5,0,0,1002.5,1015.9
56,2021-07-19T00:55:00,0.1,静穏,1,西南西,24.6,97,0,0,0,1.5,0,0,1002.5,1015.9
57,2021-07-19T00:56:00,0.2,静穏,1.2,西南西,24.5,96.8,0,0,0,1.5,0,0,1002.5,1015.9
58,2021-07-19T00:57:00,0.3,南,1.8,南西,24.3,96.7,0,0,0,1.5,0,0,1002.5,1015.9
59,2021-07-19T00:58:00,0.4,南南西,1.8,南西,24.2,96.3,0,0,0,1.5,0,0,1002.5,1015.9
60,2021-07-19T00:59:00,0.5,南西,1.8,南西,24.1,96.4,0,0,0,1.5,0,0,1002.5,1015.9
61,2021-07-19T01:00:00,0.6,南西,1.9,西,24.1,96.6,0,0,0,1.5,0,0,1002.5,1015.9
62,2021-07-19T01:01:00,0.8,南西,1.9,西,24.1,96.8,0,0,0,1.5,0,0,1002.5,1015.9
63,2021-07-19T01:02:00,0.9,西南西,1.9,西,24,97,0,0,0,1.5,0,0,1002.5,1015.9
64,2021-07-19T01:03:00,1.1,西南西,1.9,西,24,97.1,0,0,0,1.5,0,0,1002.5,1015.9
65,2021-07-19T01:04:00,1.2,西南西,1.9,西,24,97.2,0,0,0,1.5,0,0,1002.5,1015.9
66,2021-07-19T01:05:00,1.3,西南西,1.9,西,24,97.3,0,0,0,1.5,0,0,1002.5,1015.9
67,2021-07-19T01:06:00,1.3,西南西,1.9,西,24,97.4,0,0,0,1.5,0,0,1002.5,1015.9
68,2021-07-19T01:07:00,1.4,西,2,西,24,97.6,0,0,0,1.5,0,0,1002.5,1015.9
69,2021-07-19T01:08:00,1.5,西,2.2,西,23.9,97.5,0,0,0,1.5,0,0,1002.5,1015.9
70,2021-07-19T01:09:00,1.6,西,2.2,西,23.9,97.5,0,0,0,1.5,0,0,1002.5,1015.9
71,2021-07-19T01:10:00,1.6,西,2.2,西,23.9,97.7,0,0,0,1.5,0,0,1002.5,1015.9
72,2021-07-19T01:11:00,1.6,西,2.2,西,23.9,97.7,0,0,0,1.5,0,0,1002.5,1015.9
73,2021-07-19T01:12:00,1.5,西,2.2,西,23.8,97.7,0,0,0,1.5,0,0,1002.5,1015.9
74,2021-07-19T01:13:00,1.5,西,2.2,西,23.8,97.8,0,0,0,1.5,0,0,1002.5,1015.9
75,2021-07-19T01:14:00,1.5,西,2.2,西,23.8,97.8,0,0,0,1.5,0,0,1002.6,1016
76,2021-07-19T01:15:00,1.5,西南西,2.2,西,23.9,97.9,0,0,0,1.5,0,0,1002.5,1015.9
77,2021-07-19T01:16:00,1.5,西南西,2.2,西,23.9,97.9,0,0,0,1.5,0,0,1002.5,1015.9
78,2021-07-19T01:17:00,1.5,西南西,2.2,西,23.9,97.9,0,0,0,1.5,0,0,1002.5,1015.9
79,2021-07-19T01:18:00,1.4,西,2.1,西,23.9,97.9,0,0,0,1.5,0,0,1002.5,1015.9
80,2021-07-19T01:19:00,1.3,西,2.1,西,23.9,97.9,0,0,0,1.5,0,0,1002.5,1015.9
81,2021-07-19T01:20:00,1.3,西,2.1,西,24,97.9,0,0,0,1.5,0,0,1002.5,1015.9
82,2021-07-19T01:21:00,1.2,西,2.1,西,24,97.9,0,0,0,1.5,0,0,1002.5,1015.9
83,2021-07-19T01:22:00,1.2,西,2.1,西,24,97.9,0,0,0,1.5,0,0,1002.5,1015.9
84,2021-07-19T01:23:00,1.1,西,2.1,西,24.1,97.9,0,0,0,1.5,0,0,1002.5,1015.9
85,2021-07-19T01:24:00,1,西,2.1,西,24.1,97.9,0,0,0,1.5,0,0,1002.5,1015.9
86,2021-07-19T01:25:00,0.9,西北西,2.1,西,24.2,98,0,0,0,1.5,0,0,1002.5,1015.9
87,2021-07-19T01:26:00,0.9,西北西,2.1,西,24.3,97.9,0,0,0,1.5,0,0,1002.5,1015.9
88,2021-07-19T01:27:00,0.8,西北西,2.1,西,24.2,97.8,0,0,0,1.5,0,0,1002.5,1015.9
89,2021-07-19T01:28:00,0.7,西北西,1.8,西,24.1,97.8,0,0,0,1.5,0,0,1002.5,1015.9
90,2021-07-19T01:29:00,0.6,西北西,1.8,西,23.9,97.5,0,0,0,1.5,0,0,1002.5,1015.9
91,2021-07-19T01:30:00,0.5,西北西,1.6,西,23.8,97.2,0,0,0,1.5,0,0,1002.5,1015.9
92,2021-07-19T01:31:00,0.5,西,1.3,西,23.8,97.2,0,0,0,1.5,0,0,1002.6,1016
93,2021-07-19T01:32:00,0.5,西,1.1,西,23.8,97.4,0,0,0,1.5,0,0,1002.6,1016
94,2021-07-19T01:33:00,0.5,西,1.1,西,23.8,97.5,0,0,0,1.5,0,0,1002.6,1016
95,2021-07-19T01:34:00,0.5,西南西,1.1,西,23.8,97.7,0,0,0,1.5,0,0,1002.5,1015.9
96,2021-07-19T01:35:00,0.5,西南西,1.1,西,23.9,97.7,0,0,0,1.5,0,0,1002.5,1015.9
97,2021-07-19T01:36:00,0.5,西南西,1.1,西,24,97.7,0,0,0,1.5,0,0,1002.5,1015.9
98,2021-07-19T01:37:00,0.5,西南西,1.3,西,24.1,97.9,0,0,0,1.5,0,0,1002.5,1015.9
99,2021-07-19T01:38:00,0.6,西南西,1.7,西,24,97.8,0,0,0,1.5,0,0,1002.5,1015.9
100,2021-07-19T01:39:00,0.8,西南西,2,西,24,97.6,0,0,0,1.5,0,0,1002.5,1015.9
101,2021-07-19T01:40:00,1,西,2.2,西,23.9,97.5,0,0,0,1.5,0,0,1002.5,1015.9
102,2021-07-19T01:41:00,1.1,西,2.3,西,23.7,97.3,0,0,0,1.5,0,0,1002.5,1015.9
103,2021-07-19T01:42:00,1.2,西,2.7,西,23.7,97.4,0,0,0,1.5,0,0,1002.5,1015.9
104,2021-07-19T01:43:00,1.4,西,2.7,西,23.7,97.5,0,0,0,1.5,0,0,1002.5,1015.9
105,2021-07-19T01:44:00,1.5,西,2.7,西,23.7,97.5,0,0,0,1.5,0,0,1002.5,1015.9
106,2021-07-19T01:45:00,1.7,西,2.7,西,23.7,97.6,0,0,0,1.5,0,0,1002.5,1015.9
107,2021-07-19T01:46:00,1.9,西,2.7,西,23.6,97.7,0,0,0,1.5,0,0,1002.5,1016
108,2021-07-19T01:47:00,2,西,2.7,西,23.6,97.7,0,0,0,1.5,0,0,1002.5,1016
109,2021-07-19T01:48:00,2,西,2.7,西,23.6,97.8,0,0,0,1.5,0,0,1002.5,1016
110,2021-07-19T01:49:00,2.1,西,2.7,西,23.6,97.8,0,0,0,1.5,0,0,1002.5,1016
111,2021-07-19T01:50:00,2.1,西,3,西,23.6,97.8,0,0,0,1.5,0,0,1002.5,1016
112,2021-07-19T01:51:00,2.2,西,3,西,23.6,97.9,0,0,0,1.5,0,0,1002.5,1016
113,2021-07-19T01:52:00,2.2,西,3,西,23.6,97.9,0,0,0,1.5,0,0,1002.5,1016
114,2021-07-19T01:53:00,2.2,西,3,西,23.6,97.9,0,0,0,1.5,0,0,1002.6,1016.1
115,2021-07-19T01:54:00,2.1,西,3,西,23.6,97.9,0,0,0,1.5,0,0,1002.5,1016
116,2021-07-19T01:55:00,2,西,3,西,23.7,98,0,0,0,1.5,0,0,1002.5,1015.9
117,2021-07-19T01:56:00,2,西,3,西,23.7,98,0,0,0,1.5,0,0,1002.5,1015.9
118,2021-07-19T01:57:00,1.9,西,3,西,23.7,98.1,0,0,0,1.5,0,0,1002.5,1015.9
119,2021-07-19T01:58:00,1.8,西,3,西,23.7,98,0,0,0,1.5,0,0,1002.5,1015.9
120,2021-07-19T01:59:00,1.8,西,3,西,23.7,98,0,0,0,1.5,0,0,1002.5,1015.9
121,2021-07-19T02:00:00,1.6,西,2.9,西,23.8,98,0,0,0,1.5,0,0,1002.5,1015.9
122,2021-07-19T02:01:00,1.5,西,2.9,西,23.9,98,0,0,0,1.5,0,0,1002.4,1015.8
123,2021-07-19T02:02:00,1.3,西,2.8,西,23.9,98,0,0,0,1.5,0,0,1002.4,1015.8
124,2021-07-19T02:03:00,1.3,西,2.1,西,24,98.1,0,0,0,1.5,0,0,1002.4,1015.8
125,2021-07-19T02:04:00,1.3,西,2.1,西,24,97.9,0,0,0,1.5,0,0,1002.4,1015.8
126,2021-07-19T02:05:00,1.2,西,1.8,西,23.9,97.9,0,0,0,1.5,0,0,1002.4,1015.8
127,2021-07-19T02:06:00,1.2,西,1.7,西,23.9,97.8,0,0,0,1.5,0,0,1002.4,1015.8
128,2021-07-19T02:07:00,1.2,西,1.7,西,23.9,97.7,0,0,0,1.5,0,0,1002.4,1015.8
129,2021-07-19T02:08:00,1.1,西,1.5,西,23.8,97.6,0,0,0,1.5,0,0,1002.4,1015.8
130,2021-07-19T02:09:00,1.1,西,1.4,西,23.8,97.5,0,0,0,1.5,0,0,1002.4,1015.8
131,2021-07-19T02:10:00,1.1,西,1.4,西,23.9,97.7,0,0,0,1.5,0,0,1002.4,1015.8
132,2021-07-19T02:11:00,1.1,西,1.4,西,24,97.7,0,0,0,1.5,0,0,1002.4,1015.8
133,2021-07-19T02:12:00,1.1,西,1.4,西,24,97.7,0,0,0,1.5,0,0,1002.4,1015.8
134,2021-07-19T02:13:00,1.1,西,1.4,西,23.9,97.5,0,0,0,1.5,0,0,1002.5,1015.9
135,2021-07-19T02:14:00,1.1,西,1.5,西北西,23.8,97.3,0,0,0,1.5,0,0,1002.4,1015.8
136,2021-07-19T02:15:00,1.1,西,1.7,西,23.7,97.2,0,0,0,1.5,0,0,1002.4,1015.8
137,2021-07-19T02:16:00,1.2,西,2.1,西,23.7,97.1,0,0,0,1.5,0,0,1002.4,1015.8
138,2021-07-19T02:17:00,1.3,西,2.4,西,23.7,97.2,0,0,0,1.5,0,0,1002.4,1015.8
139,2021-07-19T02:18:00,1.3,西,2.4,西,23.7,97.3,0,0,0,1.5,0,0,1002.4,1015.8
140,2021-07-19T02:19:00,1.4,西,2.4,西,23.7,97.4,0,0,0,1.5,0,0,1002.4,1015.8
141,2021-07-19T02:20:00,1.4,西,2.4,西,23.6,97.4,0,0,0,1.5,0,0,1002.4,1015.8
142,2021-07-19T02:21:00,1.4,西,2.4,西,23.6,97.5,0,0,0,1.5,0,0,1002.4,1015.8
143,2021-07-19T02:22:00,1.4,西,2.4,西,23.6,97.5,0,0,0,1.5,0,0,1002.4,1015.8
144,2021-07-19T02:23:00,1.4,西,2.4,西,23.6,97.6,0,0,0,1.5,0,0,1002.4,1015.8
145,2021-07-19T02:24:00,1.4,西,2.4,西,23.6,97.6,0,0,0,1.5,0,0,1002.4,1015.8
146,2021-07-19T02:25:00,1.4,西,2.4,西,23.7,97.7,0,0,0,1.5,0,0,1002.4,1015.8
147,2021-07-19T02:26:00,1.4,西,2.4,西,23.7,97.7,0,0,0,1.5,0,0,1002.4,1015.8
148,2021-07-19T02:27:00,1.3,西,2.2,西,23.6,97.7,0,0,0,1.5,0,0,1002.4,1015.8
149,2021-07-19T02:28:00,1.3,西,1.8,西,23.6,97.7,0,0,0,1.5,0,0,1002.5,1016
150,2021-07-19T02:29:00,1.3,西,1.6,西,23.7,97.8,0,0,0,1.5,0,0,1002.4,1015.8
151,2021-07-19T02:30:00,1.2,西,1.6,西,23.7,97.8,0,0,0,1.5,0,0,1002.4,1015.8
152,2021-07-19T02:31:00,1.2,西,1.6,西,23.7,97.8,0,0,0,1.5,0,0,1002.5,1015.9
153,2021-07-19T02:32:00,1.2,西,1.6,西,23.8,97.8,0,0,0,1.5,0,0,1002.5,1015.9
154,2021-07-19T02:33:00,1.2,西,1.6,西,23.8,97.8,0,0,0,1.5,0,0,1002.5,1015.9
155,2021-07-19T02:34:00,1.1,西,1.6,西,23.7,97.6,0,0,0,1.5,0,0,1002.5,1015.9
156,2021-07-19T02:35:00,1.1,西,1.6,西,23.6,97.5,0,0,0,1.5,0,0,1002.5,1016
157,2021-07-19T02:36:00,1,西,1.6,西,23.6,97.5,0,0,0,1.5,0,0,1002.5,1016
158,2021-07-19T02:37:00,1,西,1.6,西,23.7,97.6,0,0,0,1.5,0,0,1002.5,1015.9
159,2021-07-19T02:38:00,0.9,西,1.6,西,23.8,97.7,0,0,0,1.5,0,0,1002.5,1015.9
160,2021-07-19T02:39:00,0.8,西,1.4,西北西,23.8,97.7,0,0,0,1.5,0,0,1002.5,1015.9
161,2021-07-19T02:40:00,0.7,西北西,1.4,西北西,23.9,97.7,0,0,0,1.5,0,0,1002.6,1016
162,2021-07-19T02:41:00,0.6,西北西,1.4,西北西,23.9,97.7,0,0,0,1.5,0,0,1002.6,1016
163,2021-07-19T02:42:00,0.5,西北西,1.2,西北西,23.9,97.6,0,0,0,1.5,0,0,1002.6,1016
164,2021-07-19T02:43:00,0.4,北西,1.2,西北西,23.9,97.5,0,0,0,1.5,0,0,1002.6,1016
165,2021-07-19T02:44:00,0.4,北西,1.2,西北西,23.9,97.5,0,0,0,1.5,0,0,1002.6,1016
166,2021-07-19T02:45:00,0.3,北西,1.2,西北西,23.9,97.5,0,0,0,1.5,0,0,1002.6,1016
167,2021-07-19T02:46:00,0.2,静穏,1.2,西北西,23.9,97.4,0,0,0,1.5,0,0,1002.6,1016
168,2021-07-19T02:47:00,0.2,静穏,0.7,西南西,24,97.5,0,0,0,1.5,0,0,1002.6,1016
169,2021-07-19T02:48:00,0.1,静穏,0.6,北西,23.9,97.4,0,0,0,1.5,0,0,1002.6,1016
170,2021-07-19T02:49:00,0.1,静穏,0.3,北北西,23.9,97.3,0,0,0,1.5,0,0,1002.6,1016
171,2021-07-19T02:50:00,0.1,静穏,0.3,北北西,23.9,97.3,0,0,0,1.5,0,0,1002.6,1016
172,2021-07-19T02:51:00,0.1,静穏,0.3,北北西,23.8,97.3,0,0,0,1.5,0,0,1002.6,1016
173,2021-07-19T02:52:00,0,静穏,0.3,北北西,23.9,97.4,0,0,0,1.5,0,0,1002.6,1016
174,2021-07-19T02:53:00,0,静穏,0.3,北北西,23.9,97.5,0,0,0,1.5,0,0,1002.6,1016
175,2021-07-19T02:54:00,0,静穏,0.3,北北西,23.9,97.6,0,0,0,1.5,0,0,1002.6,1016
176,2021-07-19T02:55:00,0.1,静穏,0.3,北北西,24,97.6,0,0,0,1.5,0,0,1002.6,1016
177,2021-07-19T02:56:00,0.1,静穏,0.4,北,24,97.7,0,0,0,1.5,0,0,1002.6,1016
178,2021-07-19T02:57:00,0.1,静穏,0.4,北,24,97.7,0,0,0,1.5,0,0,1002.6,1016
179,2021-07-19T02:58:00,0.1,静穏,0.4,北,23.9,97.7,0,0,0,1.5,0,0,1002.6,1016
180,2021-07-19T02:59:00,0.1,静穏,0.4,北,23.9,97.7,0,0,0,1.5,0,0,1002.6,1016
181,2021-07-19T03:00:00,0.1,静穏,0.4,北,23.8,97.7,0,0,0,1.5,0,0,1002.6,1016
182,2021-07-19T03:01:00,0.1,静穏,0.4,北,23.9,97.8,0,0,0,1.5,0,0,1002.6,1016
183,2021-07-19T03:02:00,0.1,静穏,0.5,北東,23.9,97.8,0,0,0,1.5,0,0,1002.7,1016.1
184,2021-07-19T03:03:00,0.1,静穏,0.5,北東,23.8,97.8,0,0,0,1.5,0,0,1002.7,1016.1
185,2021-07-19T03:04:00,0.1,静穏,0.5,北東,23.8,97.9,0,0,0,1.5,0,0,1002.6,1016
186,2021-07-19T03:05:00,0.1,静穏,0.5,北東,23.8,97.9,0,0,0,1.5,0,0,1002.7,1016.1
187,2021-07-19T03:06:00,0.1,静穏,0.5,北東,23.9,98,0,0,0,1.5,0,0,1002.7,1016.1
188,2021-07-19T03:07:00,0.1,静穏,0.5,北東,24,98.1,0,0,0,1.5,0,0,1002.6,1016
189,2021-07-19T03:08:00,0.1,静穏,0.5,北東,24,98.1,0,0,0,1.5,0,0,1002.6,1016
190,2021-07-19T03:09:00,0.1,静穏,0.5,北東,24,98.1,0,0,0,1.5,0,0,1002.7,1016.1
191,2021-07-19T03:10:00,0.1,静穏,0.5,北東,24,98.1,0,0,0,1.5,0,0,1002.7,1016.1
192,2021-07-19T03:11:00,0.1,静穏,0.5,北東,23.9,98.1,0,0,0,1.5,0,0,1002.7,1016.1
193,2021-07-19T03:12:00,0.1,静穏,0.3,東,23.9,98.1,0,0,0,1.5,0,0,1002.7,1016.1
194,2021-07-19T03:13:00,0.1,静穏,0.3,東,23.8,98,0,0,0,1.5,0,0,1002.7,1016.1
195,2021-07-19T03:14:00,0.1,静穏,0.3,東,23.8,98.1,0,0,0,1.5,0,0,1002.7,1016.1
196,2021-07-19T03:15:00,0.1,静穏,0.3,東,23.8,98.1,0,0,0,1.5,0,0,1002.7,1016.1
197,2021-07-19T03:16:00,0.1,静穏,0.8,西北西,23.8,98.2,0,0,0,1.5,0,0,1002.7,1016.1
198,2021-07-19T03:17:00,0.2,静穏,1.4,北西,23.6,98,0,0,0,1.5,0,0,1002.7,1016.2
199,2021-07-19T03:18:00,0.2,静穏,1.4,北西,23.6,98,0,0,0,1.5,0,0,1002.7,1016.2
200,2021-07-19T03:19:00,0.3,北北西,1.4,北西,23.6,98.1,0,0,0,1.5,0,0,1002.7,1016.2
201,2021-07-19T03:20:00,0.3,北西,1.4,北西,23.7,98.2,0,0,0,1.5,0,0,1002.7,1016.1
202,2021-07-19T03:21:00,0.3,北西,1.4,北西,23.7,98.2,0,0,0,1.5,0,0,1002.7,1016.1
203,2021-07-19T03:22:00,0.3,西北西,1.4,北西,23.7,98.3,0,0,0,1.5,0,0,1002.7,1016.1
204,2021-07-19T03:23:00,0.3,西北西,1.4,北西,23.7,98.2,0,0,0,1.5,0,0,1002.7,1016.1
205,2021-07-19T03:24:00,0.4,西北西,1.4,北西,23.6,98.1,0,0,0,1.5,0,0,1002.7,1016.2
206,2021-07-19T03:25:00,0.4,西北西,1.4,北西,23.7,98.2,0,0,0,1.5,0,0,1002.7,1016.1
207,2021-07-19T03:26:00,0.5,西,1.4,北西,23.7,98.2,0,0,0,1.5,0,0,1002.7,1016.1
208,2021-07-19T03:27:00,0.5,西,1.3,西,23.7,98.2,0,0,0,1.5,0,0,1002.7,1016.1
209,2021-07-19T03:28:00,0.5,西,1.4,西,23.5,98.1,0,0,0,1.5,0,0,1002.8,1016.3
210,2021-07-19T03:29:00,0.6,西,1.5,西,23.4,98,0,0,0,1.5,0,0,1002.8,1016.3
211,2021-07-19T03:30:00,0.6,西,1.5,西,23.4,98,0,0,0,1.5,0,0,1002.8,1016.3
212,2021-07-19T03:31:00,0.7,西,1.5,西,23.4,98.1,0,0,0,1.5,0,0,1002.8,1016.3
213,2021-07-19T03:32:00,0.7,西,1.5,西,23.4,98.1,0,0,0,1.5,0,0,1002.8,1016.3
214,2021-07-19T03:33:00,0.8,西,1.5,西,23.6,98.1,0,0,0,1.5,0,0,1002.8,1016.3
215,2021-07-19T03:34:00,0.8,西,1.5,西,23.6,98.2,0,0,0,1.5,0,0,1002.8,1016.3
216,2021-07-19T03:35:00,0.7,西,1.5,西,23.6,98.2,0,0,0,1.5,0,0,1002.8,1016.3
217,2021-07-19T03:36:00,0.7,西,1.5,西,23.5,98.2,0,0,0,1.5,0,0,1002.8,1016.3
218,2021-07-19T03:37:00,0.6,西,1.5,西,23.5,98.1,0,0,0,1.5,0,0,1002.8,1016.3
219,2021-07-19T03:38:00,0.5,西,1.5,西,23.5,98.1,0,0,0,1.5,0,0,1002.8,1016.3
220,2021-07-19T03:39:00,0.5,西,1.4,西,23.5,98.2,0,0,0,1.5,0,0,1002.8,1016.3
221,2021-07-19T03:40:00,0.4,西,1.1,西北西,23.5,98.2,0,0,0,1.5,0,0,1002.8,1016.3
222,2021-07-19T03:41:00,0.5,西,1.2,西北西,23.4,98.2,0,0,0,1.5,0,0,1002.8,1016.3
223,2021-07-19T03:42:00,0.5,西,1.2,西北西,23.5,98.2,0,0,0,1.5,0,0,1002.8,1016.3
224,2021-07-19T03:43:00,0.5,西,1.2,西北西,23.5,98.1,0,0,0,1.5,0,0,1002.8,1016.3
225,2021-07-19T03:44:00,0.6,西,1.3,西,23.5,98.2,0,0,0,1.5,0,0,1002.8,1016.3
226,2021-07-19T03:45:00,0.6,西,1.3,西,23.4,98.1,0,0,0,1.5,0,0,1002.8,1016.3
227,2021-07-19T03:46:00,0.7,西,1.3,西,23.3,98,0,0,0,1.5,0,0,1002.8,1016.3
228,2021-07-19T03:47:00,0.7,西,1.4,西,23.3,98.1,0,0,0,1.5,0,0,1002.9,1016.4
229,2021-07-19T03:48:00,0.7,西,1.4,西,23.3,98.1,0,0,0,1.5,0,0,1002.9,1016.4
230,2021-07-19T03:49:00,0.7,西,1.4,西,23.2,98.1,0,0,0,1.5,0,0,1002.9,1016.4
231,2021-07-19T03:50:00,0.7,西,1.4,西,23.2,98.1,0,0,0,1.5,0,0,1002.9,1016.4
232,2021-07-19T03:51:00,0.6,西南西,1.4,西,23.2,98.1,0,0,0,1.5,0,0,1002.9,1016.4
233,2021-07-19T03:52:00,0.5,南西,1.4,西,23.3,98.2,0,0,0,1.5,0,0,1002.9,1016.4
234,2021-07-19T03:53:00,0.4,南西,1.4,西,23.3,98.2,0,0,0,1.5,0,0,1002.9,1016.4
235,2021-07-19T03:54:00,0.4,南西,1.4,西,23.3,98.3,0,0,0,1.5,0,0,1002.9,1016.4
236,2021-07-19T03:55:00,0.3,南西,1.4,西,23.3,98.3,0,0,0,1.5,0,0,1002.9,1016.4
237,2021-07-19T03:56:00,0.3,南西,1.4,西,23.4,98.3,0,0,0,1.5,0,0,1002.9,1016.4
238,2021-07-19T03:57:00,0.3,南西,1.2,西南西,23.5,98.4,0,0,0,1.5,0,0,1002.9,1016.4
239,2021-07-19T03:58:00,0.3,南西,1.1,西,23.5,98.4,0,0,0,1.5,0,0,1002.9,1016.4
240,2021-07-19T03:59:00,0.4,西南西,1.4,西,23.6,98.4,0,0,0,1.5,0,0,1002.9,1016.4
241,2021-07-19T04:00:00,0.5,西南西,1.4,西,23.6,98.4,0,0,0,1.5,0,0,1002.9,1016.4
242,2021-07-19T04:01:00,0.6,西南西,1.4,西,23.6,98.4,0,0,0,1.5,0,0,1002.9,1016.4
243,2021-07-19T04:02:00,0.7,西,1.4,西,23.4,98.3,0,0,0,1.5,0,0,1002.9,1016.4
244,2021-07-19T04:03:00,0.7,西,1.4,西,23.4,98.2,0,0,0,1.5,0,0,1002.9,1016.4
245,2021-07-19T04:04:00,0.8,西,1.4,西,23.4,98.3,0,0,0,1.5,0,0,1002.9,1016.4
246,2021-07-19T04:05:00,0.8,西,1.4,西,23.5,98.3,0,0,0,1.5,0,0,1002.9,1016.4
247,2021-07-19T04:06:00,0.8,西,1.4,西,23.5,98.3,0,0,0,1.5,0,0,1002.9,1016.4
248,2021-07-19T04:07:00,0.8,西,1.4,西,23.4,98.3,0,0,0,1.5,0,0,1002.9,1016.4
249,2021-07-19T04:08:00,0.7,西,1.4,西,23.3,98.2,0,0,0,1.5,0,0,1002.9,1016.4
250,2021-07-19T04:09:00,0.6,西南西,1.4,西,23.4,98.2,0,0,0,1.5,0,0,1003,1016.5
